This is the latest recevied weather packets stored in our database for station/object KO4ZGL-13. If no packets are shown the sender has not sent any weather packets the latest 10 day(s).
| Time | Temp. | Humidity | Pressure | Rain* | Wind** | Luminosity | Snow |
|---|---|---|---|---|---|---|---|
| 1787831985 | 23.33° C | 99% | 1016.7 hPa | 0 mm | - | 53 W/m² | - |
| 1787831681 | 23.33° C | 99% | 1016.8 hPa | 0 mm | - | 47 W/m² | - |
| 1787831379 | 23.33° C | 99% | 1016.6 hPa | 0 mm | - | 44 W/m² | - |
| 1787831077 | 22.78° C | 99% | 1016.6 hPa | 0 mm | - | 40 W/m² | - |
| 1787830776 | 22.78° C | 99% | 1016.5 hPa | 0 mm | - | 36 W/m² | - |
| 1787830474 | 22.78° C | 99% | 1016.3 hPa | 0 mm | - | 31 W/m² | - |
| 1787830174 | 22.78° C | 99% | 1016.4 hPa | 0 mm | - | 27 W/m² | - |
| 1787829869 | 22.78° C | 99% | 1016.4 hPa | 0 mm | - | 21 W/m² | - |
| 1787829568 | 22.78° C | 99% | 1016.2 hPa | 0 mm | - | 17 W/m² | - |
| 1787829264 | 22.78° C | 99% | 1016 hPa | 0 mm | - | 13 W/m² | - |
| 1787828960 | 22.78° C | 99% | 1016.1 hPa | 0 mm | - | 9 W/m² | - |
| 1787828656 | 22.78° C | 99% | 1015.9 hPa | 0 mm | - | 5 W/m² | - |
| 1787828351 | 22.22° C | 99% | 1015.9 hPa | 0 mm | - | 2 W/m² | - |
| 1787828049 | 22.22° C | 99% | 1015.6 hPa | 0 mm | - | 0 W/m² | - |
| 1787827744 | 22.22° C | 99% | 1015.8 hPa | 0 mm | - | 0 W/m² | - |
| 1787827440 | 22.78° C | 99% | 1015.6 hPa | 0 mm | - | 0 W/m² | - |
| 1787827139 | 22.78° C | 99% | 1015.6 hPa | 0 mm | - | 0 W/m² | - |
| 1787826838 | 22.78° C | 99% | 1015.7 hPa | 0 mm | - | 0 W/m² | - |
| 1787826534 | 22.78° C | 99% | 1015.6 hPa | 0 mm | - | 0 W/m² | - |
| 1787826229 | 22.78° C | 99% | 1015.6 hPa | 0 mm | - | 0 W/m² | - |
| 1787825924 | 22.78° C | 99% | 1015.5 hPa | 0 mm | - | 0 W/m² | - |
| 1787825619 | 22.78° C | 99% | 1015.9 hPa | 0 mm | - | 0 W/m² | - |
| 1787825313 | 22.78° C | 99% | 1015.5 hPa | 0 mm | - | 0 W/m² | - |
| 1787825010 | 22.78° C | 99% | 1015.6 hPa | 0 mm | - | 0 W/m² | - |
| 1787824703 | 22.78° C | 99% | 1015.6 hPa | 0 mm | - | 0 W/m² | - |
* Rain latest hour (hover to see other rain measurements)
** Current wind speed in m/s (hover to see current wind gust speed)